Location: Unspecified
(0.0000°N, 0.0000°E)
Time: 07:31:12
(UTC+00:00)

MIDAS 4 DEB - Pass Details

Date: 13 November 2025
Orbit: 3306 x 3926 km, 95.8° (Epoch: 14 April)

Event Time Altitude Azimuth Distance (km) Brightness Sun altitude
Rises 20:33:21 0° 12° (NNE) 7,416 ? -39.7°
Enters shadow 20:33:28 - 12° (NNE) 7,388 ? -39.7°
Exits shadow 20:50:51 64° 20° (NNE) 3,849 ? -43.7°
Maximum altitude 20:55:17 86° 103° (ESE) 3,655 ? -44.7°
Drops below altitude 10° 21:14:50 10° 190° (S) 6,962 ? -49.0°
Sets 21:19:22 0° 190° (S) 8,039 ? -50.0°
